Tracking 19827 objects as of 22-Aug-2019
HD Live streaming from Space Station
objects crossing your sky now

COSMOS 2251 DEB

Track COSMOS 2251 DEB now!
10-day predictions


NORAD ID: 36529
Int'l Code: 1993-036BCP
Perigee: 739.9 km
Apogee: 981.5 km
Inclination: 74.0 °
Period: 102.0 minutes
Semi major axis: 7231 km
RCS: 0.003 m2 (small)
Launch date: June 16, 1993
Source: Commonwealth of Independent States (former USSR) (CIS)
Launch site: PLESETSK MISSILE AND SPACE COMPLEX (PKMTR)

Note: This is SATELLITE DEBRIS
aabbcc
Your satellite tracking list
Your tracking list is empty




NASA's NSSDC Master Catalog

Two Line Element Set (TLE):
1 36529U 93036BCP 19233.58113517 +.00001746 +00000-0 +85179-3 0  9996
2 36529 074.0440 190.0443 0167034 096.3437 023.5641 14.11709881283161
Source of the keplerian elements: AFSPC